Theta_e
299 298 295 297 299 296 294 294 293 296 297 296 297 297 300 303 303 302 304 305 306 306 309 309 308 308 310 312 312 312 312 314 314 313 311 310 310 307 304 307 310 314 315 313
296 294 299 299 297 296 294 293 293 296 296 295 296 296 300 301 302 304 305 306 307 308 308 307 306 306 306 308 310 310 311 312 312 313 314 313 310 305 304 300 304 307 309 310
294 296 297 296 293 293 293 293 293 292 294 295 294 294 298 301 301 303 305 305 307 307 308 307 304 304 306 306 308 309 310 311 312 313 312 306 302 299 296 297 298 299 302 302
296 298 295 294 293 294 291 295 294 292 292 290 294 287 296 299 300 302 303 305 306 306 306 305 304 304 304 306 308 308 309 310 311 312 308 307 307 302 301 301 299 295 297 300
294 293 293 293 294 295 293 294 293 293 292 291 292 288 294 296 297 300 304 307 308 307 306 305 304 304 304 305 307 308 309 309 310 309 310 309 311 310 304 301 296 293 290 292
295 296 296 296 294 295 294 294 292 292 292 286 292 290 292 296 298 302 305 306 304 303 303 302 301 302 303 304 306 306 307 307 308 307 308 309 310 303 299 299 294 293 289 289
292 293 295 295 292 294 294 293 286 286 284 285 289 289 293 299 300 301 303 304 302 303 302 303 299 299 300 302 304 304 305 305 306 306 306 307 306 301 302 300 295 290 288 287
288 286 293 296 296 293 291 293 288 284 283 287 286 285 294 300 303 304 301 301 302 303 303 301 299 299 300 301 302 303 303 304 304 304 304 305 305 304 303 300 297 296 291 289
288 288 293 292 295 297 290 288 295 289 281 285 290 295 298 299 299 299 300 302 303 302 300 299 298 298 299 300 301 302 303 304 303 303 303 301 299 297 296 295 295 293 292 287
294 288 290 291 295 294 294 297 288 290 284 283 288 289 292 295 298 299 300 301 301 300 298 297 297 297 298 300 301 302 303 303 302 302 301 298 296 294 294 291 289 286 286 285
295 292 288 291 290 292 291 290 291 292 290 287 285 291 299 300 300 299 301 300 300 299 298 297 296 297 298 299 301 301 302 302 300 300 298 296 295 292 291 289 286 285 285 283
296 293 289 289 292 293 296 294 293 289 284 287 287 290 297 299 301 301 301 300 300 297 297 297 296 296 297 298 299 299 300 299 299 299 297 296 294 290 288 287 286 285 284 283
295 289 285 287 290 291 289 291 294 294 290 288 287 290 295 296 296 297 298 299 298 296 295 295 295 295 296 297 298 298 298 298 298 298 296 294 291 288 287 286 285 284 283 282
296 289 288 287 291 293 287 290 292 292 288 289 289 293 294 294 296 298 297 298 298 296 295 296 296 296 296 297 298 298 298 298 297 296 294 292 291 288 287 285 284 283 283 281
293 284 288 291 292 290 290 290 290 290 292 289 292 292 296 298 298 300 301 298 295 295 295 297 297 296 295 295 296 297 297 296 295 294 293 292 290 289 287 284 283 283 282 281
293 285 286 285 290 290 288 290 291 290 292 292 293 293 301 302 303 302 302 302 297 296 297 298 295 294 293 294 295 295 295 294 293 293 291 291 288 286 285 283 283 282 281 280
288 285 285 284 289 289 284 288 292 291 293 293 289 295 300 299 299 300 301 302 302 302 301 299 298 296 295 294 294 294 294 293 291 291 290 288 287 286 284 283 282 281 280 280
285 285 285 282 285 277 290 295 296 294 295 295 295 297 299 299 300 302 303 303 301 300 301 301 301 299 297 297 295 294 293 291 289 290 288 287 286 285 284 282 281 281 280 279
291 287 284 281 281 286 289 291 291 290 291 297 296 296 298 300 297 299 301 301 302 303 304 303 303 302 299 294 294 292 290 289 289 289 288 287 286 285 283 282 282 281 280 279
288 289 284 284 279 277 289 290 290 294 286 290 297 298 298 298 293 298 302 301 301 301 298 297 297 296 294 292 290 289 287 287 286 288 288 287 286 284 283 283 282 281 281 280
283 284 281 282 280 284 291 289 291 285 287 286 288 290 290 290 296 300 297 297 296 296 294 293 292 292 291 287 287 286 286 285 287 287 286 285 285 284 283 283 283 281 280 279
281 281 281 283 280 278 288 289 287 287 288 287 290 291 289 291 292 293 294 294 294 294 291 288 287 286 285 286 286 285 285 286 285 285 284 284 283 284 283 282 281 281 280 278
278 283 282 283 284 288 289 290 290 289 290 291 291 291 291 291 293 294 293 292 293 291 287 284 284 283 283 284 286 284 284 284 284 283 282 282 283 283 283 282 281 280 280 280
282 285 281 282 285 288 290 291 290 290 290 292 292 291 290 293 295 291 290 289 288 286 286 283 282 282 282 281 282 284 283 283 281 281 281 282 281 282 282 282 282 281 280 280
282 283 282 282 285 286 288 288 290 290 290 290 290 290 291 292 291 290 288 287 286 286 283 282 282 282 282 281 282 282 282 282 282 282 282 282 282 282 281 281 281 281 282 283
282 280 278 278 284 283 284 288 290 289 289 289 288 288 286 286 287 288 287 287 284 285 283 282 282 281 281 281 282 282 283 284 283 282 282 282 281 281 280 280 280 282 282 283
Wind_Speed
2 8 11 17 17 4 1 4 9 6 2 5 15 20 22 18 15 19 20 22 21 22 17 13 15 17 17 17 17 17 16 15 12 10 9 7 6 4 2 3 6 7 9 12
4 14 17 2 7 8 7 12 14 12 5 6 15 20 22 20 21 21 22 23 24 22 16 13 14 17 20 20 19 19 18 17 14 10 9 5 6 3 3 3 4 5 8 12
17 4 5 10 6 10 12 16 12 10 4 8 10 17 15 14 17 23 25 26 25 20 18 14 15 18 17 21 21 20 19 17 15 14 9 6 6 4 2 2 3 3 6 7
11 5 5 9 13 13 15 12 10 7 4 9 1 11 11 10 15 14 18 21 17 15 14 14 14 16 19 20 18 18 18 18 16 16 13 12 9 6 5 6 4 5 4 6
8 11 11 12 8 13 3 4 7 3 7 7 11 10 5 3 10 19 23 16 12 10 10 9 12 13 15 14 16 16 17 17 16 16 14 12 11 8 7 6 8 6 4 4
2 2 5 5 4 5 14 6 4 2 2 12 12 11 7 9 14 17 16 10 5 3 2 3 4 7 9 12 14 15 17 17 16 16 16 16 15 10 8 8 7 6 4 3
4 8 2 2 7 3 5 8 4 5 6 12 3 10 16 10 9 13 10 4 2 6 7 5 4 6 8 12 15 15 18 18 17 17 16 15 13 13 13 13 9 9 7 4
14 12 15 11 15 9 13 10 8 7 6 9 4 11 6 13 14 14 12 11 11 10 6 6 5 6 7 10 12 14 16 17 16 17 16 13 14 10 9 12 9 9 9 8
10 12 2 2 4 14 8 13 8 5 3 5 10 19 12 10 14 9 12 9 8 6 5 5 5 7 7 9 11 13 14 15 15 16 13 12 11 9 8 9 9 6 9 7
7 9 2 4 3 4 10 11 6 6 6 10 11 11 13 5 13 10 10 7 3 4 2 4 6 7 7 8 9 11 13 15 15 15 12 10 11 9 8 9 8 8 8 10
6 5 5 4 13 18 9 11 6 3 6 6 12 15 5 14 9 11 9 6 4 2 2 4 4 6 7 8 10 11 12 15 15 14 13 12 12 10 10 9 9 9 9 10
15 13 15 14 0 5 17 17 20 10 6 6 6 24 8 6 13 13 9 7 4 1 4 6 6 8 9 11 12 13 14 14 14 14 13 13 12 11 11 10 10 11 11 11
4 6 6 6 5 4 11 10 18 16 3 18 11 24 3 2 5 8 6 6 4 5 6 6 7 9 10 11 12 14 15 16 15 15 14 13 13 11 11 12 12 12 12 12
6 4 11 18 13 11 14 18 20 21 10 21 20 32 4 6 9 10 10 7 8 8 8 8 8 9 9 10 12 13 14 15 15 14 15 15 15 14 12 11 12 13 13 14
11 6 7 19 13 5 7 19 24 26 32 19 36 22 24 13 10 12 7 8 9 10 11 10 10 10 10 11 12 13 13 14 15 15 15 16 14 14 13 13 13 13 14 13
2 3 3 5 14 17 15 7 18 27 28 26 28 27 15 8 14 16 13 14 12 13 14 11 10 10 12 14 15 14 16 15 14 15 14 11 12 12 13 12 13 12 12 12
5 4 2 5 4 12 14 23 19 17 21 22 26 38 17 13 12 13 15 14 15 13 12 12 13 14 13 15 15 17 16 14 15 14 12 11 11 12 12 12 13 14 14 14
5 4 5 8 9 12 6 5 20 26 22 21 26 32 19 12 9 13 15 11 12 18 17 12 10 12 13 12 14 12 13 15 15 15 14 13 14 14 13 14 15 15 14 15
17 7 4 6 11 12 19 5 7 12 21 27 25 26 23 13 4 22 12 14 19 18 14 11 8 9 7 11 12 11 12 12 13 15 14 14 15 14 14 14 14 13 13 13
10 10 7 6 12 8 2 0 3 5 11 13 12 24 25 9 10 18 9 6 15 12 6 7 6 5 6 6 9 11 12 13 15 15 15 13 13 13 14 14 14 12 11 11
3 3 13 12 9 6 5 1 2 9 4 5 7 9 12 7 10 20 6 6 4 4 3 4 4 5 5 6 9 10 10 13 10 11 11 12 13 14 13 13 11 12 12 11
4 3 5 5 7 9 0 2 4 3 2 4 7 7 9 10 12 15 15 9 7 6 4 3 3 4 2 5 7 8 10 7 9 10 11 12 12 10 10 14 12 13 13 13
8 9 4 3 3 3 4 6 7 5 5 11 6 12 8 8 12 14 14 12 10 7 4 2 3 2 1 3 3 5 5 8 9 9 9 10 11 10 12 13 12 11 12 11
3 2 7 11 11 7 6 4 3 6 11 15 12 9 7 14 14 10 9 10 6 4 5 2 3 4 3 2 3 3 7 8 8 9 9 9 10 10 10 8 9 10 11 11
6 2 2 7 12 7 3 6 12 8 10 11 8 5 9 7 12 6 6 5 5 5 3 4 5 4 4 5 4 5 8 10 10 9 8 9 8 10 10 8 9 9 10 12
11 17 12 11 11 7 16 16 10 12 14 10 8 6 6 8 10 6 8 5 2 4 1 6 8 5 5 6 6 7 7 9 10 9 8 8 8 8 8 8 7 13 12 18
Wind_Direction
83 212 205 219 221 241 135 232 262 248 203 227 244 262 267 271 260 260 260 258 253 247 242 227 214 205 202 203 198 196 192 192 184 184 175 194 196 184 182 180 162 163 162 157
175 230 223 272 182 207 232 258 259 276 261 226 271 263 270 263 257 252 253 255 252 252 243 223 207 202 204 199 200 197 197 192 193 190 193 189 178 182 169 171 175 159 160 163
220 188 223 198 187 200 229 235 242 256 315 228 284 269 241 258 258 257 254 254 259 260 260 236 220 212 207 207 199 198 197 192 193 192 176 146 127 103 119 193 192 183 153 166
238 195 157 197 230 209 241 216 233 250 273 273 297 286 267 263 263 251 256 249 253 252 248 247 224 216 209 209 202 201 195 191 192 186 186 184 178 166 187 175 172 166 167 177
204 185 189 205 205 187 251 128 180 186 237 303 227 266 218 207 244 253 255 267 263 247 244 244 226 227 217 202 198 197 195 194 191 189 194 189 194 194 161 155 159 157 118 126
308 10 199 205 107 172 140 102 85 101 227 259 242 224 263 211 224 250 265 274 245 191 273 252 236 217 203 194 194 192 195 195 191 193 194 196 197 174 157 165 168 170 139 139
170 212 189 180 113 91 190 164 213 228 204 255 77 219 256 280 236 236 260 264 242 302 286 276 223 203 197 193 193 191 196 196 191 196 193 194 190 183 184 181 173 163 164 181
207 228 184 182 221 178 192 202 207 232 230 282 123 237 248 243 259 254 271 287 286 280 244 238 225 203 196 199 200 199 198 198 193 195 194 194 194 196 195 190 181 185 184 179
189 234 212 251 164 175 174 213 248 271 82 280 251 259 254 230 245 242 251 273 277 293 278 236 200 195 187 192 195 203 200 203 198 197 189 186 190 180 179 177 185 173 174 162
213 259 180 141 174 225 213 146 169 213 228 242 245 258 244 217 233 238 227 222 239 260 231 195 186 174 180 190 195 202 201 199 200 197 188 184 182 174 168 170 165 159 148 149
205 226 126 147 209 183 169 205 217 235 226 248 276 259 177 227 191 186 190 206 207 230 209 183 181 164 174 183 189 193 202 197 196 192 185 181 185 168 166 172 157 154 145 145
202 213 230 207 191 278 237 218 194 206 187 241 292 268 159 185 183 172 190 222 182 183 214 188 178 177 183 187 189 193 196 198 197 191 186 188 185 168 165 167 165 157 155 153
186 206 211 223 237 200 231 207 216 232 30 220 202 259 89 125 188 205 189 221 224 179 210 207 185 194 197 196 193 198 196 199 195 188 186 188 186 174 176 168 165 162 155 159
9 239 229 230 249 170 207 207 206 206 212 233 230 251 199 210 225 219 222 222 220 206 207 209 201 202 206 204 203 204 203 200 194 187 187 189 187 182 178 171 167 167 166 165
172 225 235 261 278 268 229 208 206 211 224 215 245 237 242 217 216 240 228 203 211 223 227 227 221 208 205 208 209 207 209 204 198 193 191 190 183 180 174 171 169 167 171 171
23 308 256 247 256 260 262 230 213 220 229 239 254 267 244 254 252 239 248 234 221 229 236 229 220 217 220 213 213 205 204 197 191 198 202 189 180 175 173 171 168 166 169 168
204 162 300 290 287 257 246 233 238 240 232 235 241 250 261 252 242 227 240 251 259 270 254 238 220 218 217 214 206 206 200 185 191 194 191 187 180 178 174 168 168 172 174 170
180 185 177 269 281 257 265 338 227 231 242 243 251 259 264 265 261 244 246 254 239 241 248 242 231 229 222 219 208 206 191 191 191 193 185 179 179 179 173 172 177 176 174 176
210 193 225 247 256 294 287 233 186 195 242 243 247 264 270 260 247 261 233 225 246 258 260 248 247 247 227 207 203 191 187 188 191 196 190 183 179 178 176 179 178 175 174 174
221 222 212 211 246 259 271 194 285 105 261 347 250 255 264 277 256 270 329 228 242 258 273 275 264 253 237 199 172 179 190 186 195 195 190 180 178 176 179 176 175 173 179 174
168 199 227 240 243 246 331 285 201 203 287 306 346 360 3 345 304 305 307 281 273 279 289 309 290 259 245 169 168 190 188 204 192 180 168 169 173 177 174 170 169 165 165 159
222 230 221 226 255 256 326 100 261 343 248 192 320 317 328 326 326 319 317 291 282 284 292 308 285 267 250 178 172 179 197 173 159 162 160 166 167 168 165 161 160 162 161 165
242 223 261 227 276 228 209 184 197 201 256 314 290 300 287 300 318 316 321 317 293 299 304 333 301 282 286 177 170 172 167 152 150 151 157 161 160 161 164 164 165 165 173 176
290 360 255 287 258 269 303 288 274 206 237 275 271 238 239 281 292 296 306 320 293 294 288 260 197 220 215 206 170 150 142 136 137 144 156 153 155 155 159 163 170 172 180 182
271 339 250 287 282 307 268 315 316 307 263 271 286 247 257 268 274 250 290 275 273 275 286 283 232 204 198 194 190 156 151 146 150 154 155 160 158 160 164 175 182 188 191 195
232 245 250 257 270 292 288 291 274 295 289 277 263 269 238 218 257 238 260 260 231 294 273 274 264 217 185 181 181 163 156 157 152 153 159 164 158 162 167 170 178 210 204 206